HXA779 ZGHA-ZSHC

Flight info

Callsign HXA779
Flight time N/A
Altitude 31100
Route PAT7W PATVO P645 TXN G204 OREXA ORE81A
Aircraft A20N/M-SDE2E3GHIJ1J3J4J5LM1ORWXYZ/LB1D1

Departure

Time 2026-05-04 14:10
Airport Changsha Huanghua International Airport (ZGHA)

Arrival

Time N/A
Airport Hangzhou Xiaoshan International Airport (ZSHC)
Time Latitude Longitude Altitude Speed Heading
2026-05-04 13:58 28.19709 113.21510 220 ft 0 kts 280°
2026-05-04 14:03 28.19708 113.21518 220 ft 2 kts 280°
2026-05-04 14:03 28.19705 113.21534 220 ft 2 kts 280°
2026-05-04 14:03 28.19702 113.21551 220 ft 2 kts 280°
2026-05-04 14:04 28.19697 113.21585 220 ft 2 kts 280°
2026-05-04 14:04 28.19694 113.21602 220 ft 2 kts 280°
2026-05-04 14:04 28.19691 113.21619 220 ft 2 kts 281°
2026-05-04 14:05 28.19672 113.21643 220 ft 2 kts 343°
2026-05-04 14:05 28.19664 113.21645 220 ft 1 kts 358°
2026-05-04 14:05 28.19659 113.21645 220 ft 0 kts 357°
2026-05-04 14:07 28.19660 113.21645 220 ft 0 kts 357°
2026-05-04 14:07 28.19698 113.21642 220 ft 10 kts 357°
2026-05-04 14:07 28.19747 113.21657 220 ft 7 kts 52°
2026-05-04 14:07 28.19768 113.21709 220 ft 6 kts 56°
2026-05-04 14:08 28.19812 113.21734 220 ft 8 kts 360°
2026-05-04 14:08 28.19908 113.21727 220 ft 17 kts 357°
2026-05-04 14:08 28.20014 113.21721 220 ft 8 kts 358°
2026-05-04 14:08 28.20061 113.21761 220 ft 9 kts 78°
2026-05-04 14:09 28.20027 113.21906 220 ft 11 kts 163°
2026-05-04 14:09 28.20006 113.21909 220 ft 0 kts 176°
2026-05-04 14:10 28.19321 113.21951 220 ft 119 kts 176°
2026-05-04 14:10 28.18297 113.22020 362 ft 162 kts 176°
2026-05-04 14:10 28.17162 113.22105 983 ft 167 kts 176°
2026-05-04 14:10 28.16003 113.22192 1664 ft 173 kts 176°
2026-05-04 14:11 28.14771 113.22279 2167 ft 187 kts 176°
2026-05-04 14:11 28.11929 113.22469 3109 ft 221 kts 176°
2026-05-04 14:11 28.10391 113.22639 3733 ft 231 kts 164°
2026-05-04 14:12 28.09041 113.23595 4442 ft 236 kts 126°
2026-05-04 14:12 28.08423 113.25248 5401 ft 230 kts 96°
2026-05-04 14:12 28.08226 113.28844 7061 ft 234 kts 92°
2026-05-04 14:13 28.08138 113.30694 7897 ft 237 kts 92°
2026-05-04 14:13 28.08035 113.32546 8720 ft 239 kts 92°
2026-05-04 14:13 28.07920 113.34425 9399 ft 248 kts 93°
2026-05-04 14:13 28.07789 113.36458 9888 ft 267 kts 93°
2026-05-04 14:14 28.07648 113.38612 10382 ft 285 kts 93°
2026-05-04 14:14 28.07334 113.43362 11305 ft 321 kts 93°
2026-05-04 14:14 28.07120 113.45946 11711 ft 340 kts 96°
2026-05-04 14:15 28.06455 113.51530 12406 ft 376 kts 97°
2026-05-04 14:15 28.05710 113.57592 13215 ft 402 kts 97°
2026-05-04 14:16 28.04935 113.63954 14828 ft 414 kts 97°
2026-05-04 14:16 28.04583 113.67181 15878 ft 416 kts 95°
2026-05-04 14:17 28.04607 113.73770 17562 ft 426 kts 85°
2026-05-04 14:17 28.04976 113.77133 18373 ft 431 kts 83°
2026-05-04 14:17 28.05825 113.83892 19840 ft 440 kts 83°
2026-05-04 14:18 28.06256 113.87327 20520 ft 445 kts 83°
2026-05-04 14:18 28.07119 113.94303 21575 ft 451 kts 83°
2026-05-04 14:19 28.07975 114.01336 22425 ft 457 kts 83°
2026-05-04 14:19 28.08407 114.04905 22837 ft 460 kts 83°
2026-05-04 14:19 28.08847 114.08546 23231 ft 464 kts 83°
2026-05-04 14:19 28.09282 114.12157 23600 ft 466 kts 83°
2026-05-04 14:20 28.09718 114.15798 23950 ft 469 kts 83°
2026-05-04 14:20 28.10158 114.19479 24384 ft 470 kts 83°
2026-05-04 14:20 28.10591 114.23117 24885 ft 468 kts 84°
2026-05-04 14:21 28.11470 114.30396 25802 ft 467 kts 83°
2026-05-04 14:21 28.12040 114.34018 26229 ft 468 kts 80°
2026-05-04 14:21 28.12775 114.37607 26654 ft 469 kts 77°
2026-05-04 14:21 28.13641 114.41145 27072 ft 469 kts 76°
2026-05-04 14:22 28.14549 114.44733 27493 ft 469 kts 75°
2026-05-04 14:22 28.15448 114.48271 27903 ft 469 kts 75°
2026-05-04 14:22 28.16335 114.51770 28301 ft 469 kts 75°
2026-05-04 14:22 28.17239 114.55347 28703 ft 469 kts 75°
2026-05-04 14:23 28.19021 114.62435 29484 ft 469 kts 75°
2026-05-04 14:23 28.19905 114.65962 29811 ft 470 kts 76°
2026-05-04 14:23 28.20802 114.69557 30103 ft 472 kts 76°
2026-05-04 14:24 28.21689 114.73126 30380 ft 474 kts 76°
2026-05-04 14:24 28.22577 114.76696 30656 ft 476 kts 76°
2026-05-04 14:24 28.23484 114.80344 30925 ft 477 kts 76°
2026-05-04 14:24 28.24378 114.83940 31114 ft 479 kts 76°
2026-05-04 14:25 28.25282 114.87577 31130 ft 480 kts 76°
2026-05-04 14:25 28.28021 114.98621 31140 ft 491 kts 76°
2026-05-04 14:26 28.29871 115.06104 31141 ft 490 kts 76°
2026-05-04 14:26 28.31705 115.13538 31141 ft 488 kts 75°
2026-05-04 14:27 28.33523 115.20932 31141 ft 486 kts 75°
2026-05-04 14:27 28.35332 115.28301 31140 ft 485 kts 75°
2026-05-04 14:28 28.37147 115.35715 31140 ft 485 kts 75°
2026-05-04 14:28 28.38945 115.43080 31140 ft 485 kts 75°
2026-05-04 14:29 28.42534 115.57837 30973 ft 485 kts 75°
2026-05-04 14:30 28.43425 115.61510 30724 ft 484 kts 75°
2026-05-04 14:30 28.44320 115.65208 30474 ft 484 kts 76°
2026-05-04 14:30 28.46088 115.72550 29976 ft 485 kts 76°
2026-05-04 14:31 28.46970 115.76226 29727 ft 485 kts 76°
2026-05-04 14:31 28.48750 115.83635 29225 ft 485 kts 76°
2026-05-04 14:32 28.50514 115.90988 28728 ft 486 kts 76°
2026-05-04 14:32 28.51411 115.94730 28476 ft 486 kts 76°
2026-05-04 14:32 28.52286 115.98389 28229 ft 486 kts 76°
2026-05-04 14:32 28.53179 116.02124 27977 ft 487 kts 76°
2026-05-04 14:33 28.54067 116.05847 27726 ft 487 kts 76°
2026-05-04 14:33 28.54949 116.09545 27477 ft 487 kts 76°
2026-05-04 14:33 28.55838 116.13278 27226 ft 487 kts 76°
2026-05-04 14:33 28.56721 116.16997 26976 ft 488 kts 76°
2026-05-04 14:34 28.57598 116.20691 26727 ft 488 kts 76°
2026-05-04 14:34 28.58480 116.24410 26478 ft 488 kts 76°
2026-05-04 14:34 28.59074 116.26919 26309 ft 489 kts 76°
2026-05-04 14:35 28.61016 116.35132 25759 ft 489 kts 76°
2026-05-04 14:35 28.61906 116.38903 25506 ft 490 kts 76°
2026-05-04 14:35 28.62786 116.42640 25256 ft 490 kts 76°
2026-05-04 14:35 28.63671 116.46402 25005 ft 490 kts 76°
2026-05-04 14:36 28.64543 116.50113 24757 ft 491 kts 76°
2026-05-04 14:36 28.65431 116.53897 24625 ft 491 kts 75°
2026-05-04 14:36 28.66308 116.57641 24620 ft 492 kts 76°
2026-05-04 14:36 28.67191 116.61411 24617 ft 493 kts 76°
2026-05-04 14:37 28.68047 116.65076 24616 ft 493 kts 76°
2026-05-04 14:37 28.68939 116.68908 24616 ft 493 kts 76°
2026-05-04 14:37 28.69813 116.72674 24615 ft 492 kts 76°
2026-05-04 14:37 28.70694 116.76472 24615 ft 492 kts 76°
2026-05-04 14:38 28.71561 116.80213 24615 ft 492 kts 76°
2026-05-04 14:38 28.72437 116.83991 24615 ft 492 kts 76°
2026-05-04 14:38 28.73303 116.87733 24615 ft 492 kts 76°
2026-05-04 14:38 28.74176 116.91507 24615 ft 492 kts 76°
2026-05-04 14:39 28.75048 116.95285 24615 ft 492 kts 76°
2026-05-04 14:39 28.75915 116.99044 24544 ft 493 kts 76°
2026-05-04 14:39 28.76790 117.02841 24285 ft 491 kts 76°
2026-05-04 14:40 28.78550 117.10290 23778 ft 489 kts 71°
2026-05-04 14:40 28.80127 117.13702 23516 ft 488 kts 54°
2026-05-04 14:40 28.82343 117.16600 23277 ft 487 kts 47°
2026-05-04 14:40 28.84684 117.19363 23027 ft 485 kts 46°
2026-05-04 14:41 28.87063 117.22123 22774 ft 483 kts 45°
2026-05-04 14:41 28.89426 117.24865 22626 ft 482 kts 46°
2026-05-04 14:41 28.94087 117.30308 22618 ft 482 kts 46°
2026-05-04 14:42 28.98740 117.35776 22615 ft 482 kts 46°
2026-05-04 14:42 29.00973 117.38405 22615 ft 483 kts 46°
2026-05-04 14:42 29.03302 117.41151 22615 ft 483 kts 46°
2026-05-04 14:43 29.05629 117.43900 22616 ft 483 kts 47°
2026-05-04 14:43 29.07959 117.46653 22618 ft 483 kts 47°
2026-05-04 14:43 29.10310 117.49436 22620 ft 484 kts 47°
2026-05-04 14:43 29.12602 117.52171 22626 ft 479 kts 44°
2026-05-04 14:44 29.14929 117.54921 22277 ft 470 kts 44°
2026-05-04 14:44 29.17148 117.57537 22017 ft 453 kts 44°
2026-05-04 14:44 29.19313 117.60093 21769 ft 445 kts 44°
2026-05-04 14:44 29.21436 117.62604 21521 ft 442 kts 44°
2026-05-04 14:45 29.23587 117.65153 21269 ft 440 kts 44°
2026-05-04 14:45 29.25657 117.67620 21024 ft 439 kts 45°
2026-05-04 14:45 29.27752 117.70126 20797 ft 437 kts 45°
2026-05-04 14:45 29.29853 117.72639 20750 ft 436 kts 45°
2026-05-04 14:46 29.31917 117.75105 20745 ft 436 kts 45°
2026-05-04 14:46 29.34012 117.77608 20742 ft 437 kts 45°
2026-05-04 14:46 29.36107 117.80111 20741 ft 437 kts 45°
2026-05-04 14:46 29.38217 117.82632 20741 ft 437 kts 45°
2026-05-04 14:47 29.40290 117.85108 20740 ft 437 kts 45°
2026-05-04 14:47 29.42401 117.87631 20741 ft 436 kts 45°
2026-05-04 14:47 29.44496 117.90136 20741 ft 436 kts 45°
2026-05-04 14:47 29.46584 117.92633 20742 ft 436 kts 45°
2026-05-04 14:48 29.48671 117.95132 20742 ft 436 kts 45°
2026-05-04 14:48 29.50782 117.97662 20742 ft 436 kts 45°
2026-05-04 14:48 29.52878 118.00175 20742 ft 436 kts 45°
2026-05-04 14:48 29.54957 118.02670 20742 ft 437 kts 45°
2026-05-04 14:49 29.57049 118.05182 20742 ft 436 kts 45°
2026-05-04 14:49 29.59185 118.07702 20737 ft 436 kts 41°
2026-05-04 14:49 29.61600 118.09753 20737 ft 434 kts 28°
2026-05-04 14:49 29.64332 118.11111 20740 ft 432 kts 15°
2026-05-04 14:50 29.67291 118.11719 20742 ft 431 kts
2026-05-04 14:50 29.70260 118.11530 20744 ft 430 kts 350°
2026-05-04 14:50 29.73178 118.10786 20748 ft 430 kts 346°
2026-05-04 14:50 29.75073 118.10212 20718 ft 427 kts 345°
2026-05-04 14:51 29.76044 118.09909 20636 ft 425 kts 345°